This is the latest recevied weather packets stored in our database for station/object N7CW. If no packets are shown the sender has not sent any weather packets the latest 10 day(s).
| Time | Temp. | Humidity | Pressure | Rain* | Wind** | Luminosity | Snow |
|---|---|---|---|---|---|---|---|
| 1777750268 | 21.11° C | 24% | 1019.3 hPa | 0 mm | - | 834 W/m² | - |
| 1777749963 | 20.56° C | 24% | 1019.4 hPa | 0 mm | - | 833 W/m² | - |
| 1777749661 | 21.11° C | 24% | 1019.3 hPa | 0 mm | - | 830 W/m² | - |
| 1777749358 | 20° C | 25% | 1019.3 hPa | 0 mm | - | 833 W/m² | - |
| 1777749055 | 21.67° C | 24% | 1019.7 hPa | 0 mm | - | 827 W/m² | - |
| 1777748753 | 21.67° C | 24% | 1019.5 hPa | 0 mm | - | 828 W/m² | - |
| 1777748450 | 21.11° C | 24% | 1019.5 hPa | 0 mm | - | 826 W/m² | - |
| 1777748144 | 20.56° C | 25% | 1019.8 hPa | 0 mm | - | 825 W/m² | - |
| 1777747842 | 19.44° C | 26% | 1019.8 hPa | 0 mm | - | 822 W/m² | - |
| 1777747537 | 20.56° C | 25% | 1019.8 hPa | 0 mm | - | 820 W/m² | - |
| 1777746626 | 20.56° C | 25% | 1020.3 hPa | 0 mm | - | 806 W/m² | - |
| 1777746321 | 20.56° C | 25% | 1020.1 hPa | 0 mm | - | 801 W/m² | - |
| 1777746018 | 20° C | 26% | 1020 hPa | 0 mm | - | 798 W/m² | - |
| 1777745716 | 19.44° C | 26% | 1020.1 hPa | 0 mm | - | 791 W/m² | - |
| 1777745414 | 19.44° C | 26% | 1020.1 hPa | 0 mm | - | 785 W/m² | - |
| 1777744193 | 20° C | 26% | 1020.4 hPa | 0 mm | - | 761 W/m² | - |
| 1777743283 | 20.56° C | 24% | 1020.4 hPa | 0 mm | - | 736 W/m² | - |
| 1777742981 | 19.44° C | 26% | 1020.5 hPa | 0 mm | - | 729 W/m² | - |
| 1777742678 | 20° C | 26% | 1020.4 hPa | 0 mm | - | 720 W/m² | - |
| 1777742374 | 19.44° C | 27% | 1020.5 hPa | 0 mm | - | 674 W/m² | - |
| 1777742070 | 18.89° C | 29% | 1020.3 hPa | 0 mm | - | 597 W/m² | - |
| 1777741768 | 18.89° C | 28% | 1020.5 hPa | 0 mm | - | 694 W/m² | - |
| 1777741160 | 18.89° C | 27% | 1020.3 hPa | 0 mm | - | 665 W/m² | - |
| 1777739947 | 18.89° C | 29% | 1020.5 hPa | 0 mm | - | 617 W/m² | - |
| 1777739341 | 18.33° C | 30% | 1020.4 hPa | 0 mm | - | 589 W/m² | - |
* Rain latest hour (hover to see other rain measurements)
** Current wind speed in m/s (hover to see current wind gust speed)